sat.trackr.live / text

‹ back to catalog

BANDWAGON-4 OBJECT M

NORAD 66304 · 2025-248M

PAYLOAD ACTIVE UNKNOWN

§ Identity

Operator
Country
TBD
Launch date
2025-11-02
Launch site
AFETR
Launch vehicle
Mass (kg)
RCS (m²)

External: N2YO · Heavens-Above · Gunter

§ Orbital elements

Epoch: 2026-09-20T04:17:50.066880Z

Period
94.09 min
Inclination
45.4191°
Eccentricity
0.0008684
Mean motion
15.30496908 rev/d
Perigee alt
468.4 km
Apogee alt
480.3 km
Semi-major
6,852.5 km
B*
3.8678e-4
RAAN
317.5760°
Arg perigee
257.4150°
Mean anomaly
102.5769°
Rev number
4,787

§ Raw data

BANDWAGON-4 OBJECT M1 66304U 25248M   26263.17905170  .00011338  00000+0  38678-3 0  99992 66304  45.4191 317.5760 0008684 257.4150 102.5769 15.30496908 47875

JSON: /api/v1/satellites/66304 · /tle

For live sub-satellite position, see the globe view (requires WebGL).

§ Visibility from observer

Set your observer location to see the next 7 days of passes ≥ 10°. The values pass through the URL so the page stays shareable.

No JS? Fill the form by hand. The geolocation button needs JavaScript.